Hourly Data Report for March 25, 2015

All times are specified in Local Standard Time (LST). Add 1 hour to adjust for Daylight Saving Time where and when it is observed.

Metadata including Station Name, Province, Latitude, Longitude, Elevation, Climate ID, WMO ID, TC ID
LUNENBURG
NOVA SCOTIA
Latitude: 44°21'36.094" N Longitude: 64°17'46.082" W Elevation: 3.80 m
Climate ID: 8203210 WMO ID: TC ID: XLB
Hourly Data Report for March 25, 2015
Temp Definition
°C

Dew Point Temp Definition
°C

Rel Hum Definition
%

Wind Dir Definition
10's deg
Wind Spd Definition
km/h

Visibility Definition
km

Stn Press Definition
kPa

Hmdx Definition

Wind Chill Definition

Weather Definition

00:00 -3.6 LegendMM LegendMM 27 6 102.36 -6 LegendNANA
01:00 -3.8 LegendMM LegendMM 1 2 102.37 -5 LegendNANA
02:00 -3.3 LegendMM LegendMM 32 8 102.38 -7 LegendNANA
03:00 -3.7 LegendMM LegendMM 35 8 102.38 -7 LegendNANA
04:00 -4.3 LegendMM LegendMM 29 7 102.38 -7 LegendNANA
05:00 -5.6 LegendMM LegendMM 28 9 102.40 -10 LegendNANA
06:00 -5.6 LegendMM LegendMM 27 6 102.43 -8 LegendNANA
07:00 -5.7 LegendMM LegendMM 27 7 102.48 -9 LegendNANA
08:00 -2.5 LegendMM LegendMM 30 10 102.54 -6 LegendNANA
09:00 -0.1 LegendMM LegendMM 31 11 102.57 -4 LegendNANA
10:00 1.8 LegendMM LegendMM 33 14 102.60 LegendNANA
11:00 2.8 LegendMM LegendMM 33 15 102.58 LegendNANA
12:00 4.2 LegendMM LegendMM 34 10 102.52 LegendNANA
13:00 3.7 LegendMM LegendMM 11 7 102.48 LegendNANA
14:00 1.9 LegendMM LegendMM 15 19 102.46 LegendNANA
15:00 3.1 LegendMM LegendMM 16 13 102.45 LegendNANA
16:00 3.0 LegendMM LegendMM 16 14 102.38 LegendNANA
17:00 3.8 LegendMM LegendMM 20 17 102.36 LegendNANA
18:00 3.3 LegendMM LegendMM 22 18 102.38 LegendNANA
19:00 1.7 LegendMM LegendMM 25 14 102.38 LegendNANA
20:00 0.6 LegendMM LegendMM 28 9 102.40 LegendNANA
21:00 0.5 LegendMM LegendMM 28 11 102.42 LegendNANA
22:00 -0.2 LegendMM LegendMM 26 8 102.41 -3 LegendNANA
23:00 -0.6 LegendMM LegendMM 0 1 102.36 -1 LegendNANA

Notes on Data Quality.

Legend
  • E = Estimated
  • M = Missing
  • NA = Not Available
  • ‡ = Partner data that is not subject to review by the National Climate Archives